Погода в Алтыэйлюле

Турция     39°33′19″N   27°52′05″E
темп.,
°C
ветер,
м/с
пор.,
м/с
влажн.,
%
обл.,
%
осадки,
мм/ч
давл.,
гПа
погр.,
м
19 сентября, вс
вс1900:00+21юз22566 0.0 101321
03:00+20зюз11580 0.0 101311
06:00+19всв11640 0.0 101411
09:00+23юв11480 0.0 1014258
12:00+31з49277 0.0 10132740
15:00+32з79234 0.0 10123198
18:00+30з911272 0.0 10121770
21:00+23юз33460 0.3 101328
20 сентября, пн
пн2000:00+21ю11530 0.0 101311
03:00+20ююз22550 0.0 101314
06:00+20ююз22550 0.0 101314
09:00+26ююз23380 0.0 1013283
12:00+32юз56240 0.0 10121693
15:00+35зюз68160 0.0 10103307
18:00+31з79210 0.0 10101872
21:00+24зюз33380 0.0 101129
21 сентября, вт
вт2100:00+22ююз335041 0.0 101232
03:00+20юз33550 0.0 101225
06:00+19с11590 0.0 101311
09:00+21ссв56590 0.0 1016542
12:00+25ссв7657100 0.0 10161323
15:00+20ссв8973100 0.1 1017948
18:00+18ссв71077100 0.0 1018946
21:00+17ссв61082100 0.0 1019764
22 сентября, ср
ср2200:00+16ссв61086100 0.1 1019646
03:00+16ссв71081100 0.1 1019727
06:00+15ссв598159 0.0 1018659
09:00+16ссв69691 0.0 1018659
12:00+21ссв683934 0.0 10161484
15:00+23с78315 0.0 10141644
18:00+19ссв78391 0.0 10141085
21:00+14ссз22615 0.0 101420
23 сентября, чт
чт2300:00+13ссз226799 0.0 101326
03:00+12ссз2273100 0.0 101314
06:00+11ссв498899 0.2 1014460
09:00+12с587791 0.3 1015787
12:00+12ссв697490 0.5 10161033
15:00+13ссв8117386 1.1 10161063
18:00+14ссв8116648 0.1 10161189
21:00+11ссв6117714 0.2 1018584